{"data":{"norad_id":63501,"epoch":"2026-09-20T11:00:13.631904Z","epoch_age_seconds":159885,"freshness":"FRESH","line1":"1 63501U 25071J   26263.45849111  .00010529  00000+0  35037-3 0  9999","line2":"2 63501  53.1604 314.2684 0001259  78.1554 281.9589 15.31718494 82545","mean_motion":15.31718494,"eccentricity":0.0001259,"inclination_deg":53.1604,"raan_deg":314.2684,"arg_perigee_deg":78.1554,"mean_anomaly_deg":281.9589,"bstar":0.00035037,"rev_number":8254,"period_min":94.012052843961,"perigee_km":469.82259945575,"apogee_km":471.54713280164,"semimajor_km":6848.8218661287,"source":"CELESTRAK","updated_at":"2026-09-21T09:00:35.014707Z"}}